Overview Statistics Trail Chart Weather Telemetry Raw packets
 

This is the latest recevied weather packets stored in our database for station/object WX5RP. If no packets are shown the sender has not sent any weather packets the latest 10 day(s).

<< 35 36 37 38 39 40 41 >>
Time Temp. Humidity Pressure Rain* Wind** Luminosity Snow
1777463716 -2.22° C 77% 1020.8 hPa 0 mm - 0 W/m² -
1777463116 -1.67° C 76% 1021.1 hPa 0 mm - 0 W/m² -
1777462516 -1.11° C 76% 1021 hPa 0 mm - 0 W/m² -
1777461916 -1.11° C 76% 1021 hPa 0 mm - 0 W/m² -
1777461316 -1.11° C 75% 1021 hPa 0 mm - 0 W/m² -
1777460716 -0.56° C 75% 1021.1 hPa 0 mm - 0 W/m² -
1777460116 0° C 73% 1021 hPa 0 mm - 0 W/m² -
1777459516 0.56° C 75% 1020.7 hPa 0 mm - 0 W/m² -
1777458916 0° C 76% 1021.1 hPa 0 mm - 0 W/m² -
1777458316 -0.56° C 76% 1021 hPa 0 mm - 0 W/m² -
1777457716 -0.56° C 75% 1020.7 hPa 0 mm - 0 W/m² -
1777457116 -0.56° C 74% 1020.9 hPa 0 mm - 0 W/m² -
1777456516 0° C 74% 1021.1 hPa 0 mm - 0 W/m² -
1777455916 0.56° C 72% 1021.4 hPa 0 mm - 0 W/m² -
1777455316 0.56° C 74% 1021 hPa 0 mm - 0 W/m² -
1777454715 0.56° C 72% 1020.6 hPa 0 mm - 0 W/m² -
1777454116 1.11° C 70% 1020.6 hPa 0 mm - 0 W/m² -
1777453515 1.67° C 71% 1021 hPa 0 mm - 0 W/m² -
1777452915 1.67° C 69% 1021.1 hPa 0 mm - 0 W/m² -
1777452315 2.22° C 69% 1021.2 hPa 0 mm - 0 W/m² -
1777451715 2.78° C 68% 1021.2 hPa 0 mm - 0 W/m² -
1777451116 3.33° C 66% 1021.2 hPa 0 mm - 0 W/m² -
1777450518 3.89° C 64% 1021.2 hPa 0 mm - 0 W/m² -
1777449915 5° C 60% 1021.2 hPa 0 mm - 0 W/m² -
1777449315 5.56° C 58% 1021.3 hPa 0 mm - 0 W/m² -

* Rain latest hour (hover to see other rain measurements)
** Current wind speed in m/s (hover to see current wind gust speed)